Погода в Марьевке

Россия / Оренбургская область     52°14′42″N   55°16′44″E
темп.,
°C
ветер,
м/с
пор.,
м/с
влажн.,
%
обл.,
%
осадки,
мм/ч
давл.,
гПа
погр.,
м
25 февраля, чт
чт2523:00−23ссз6158994 0.0 1026453
02:00−24ссз6129048 0.0 1029264
05:00−27ссз599324 0.0 1031154
08:00−29ссз45940 0.0 103269
11:00−25ссз35920 0.0 1034176
14:00−22сз22870 0.0 1033223
17:00−22юз22918 0.0 103354
20:00−24ю339594 0.0 103229
26 февраля, пт
пт2623:00−24ююв379797 0.0 1031177
02:00−23ююв5897100 0.1 1029280
05:00−23ююв5897100 0.4 1027313
08:00−22юв61097100 0.1 1025309
11:00−19юв61096100 0.3 1024417
14:00−16юв61093100 0.3 1022608
17:00−14юв6993100 0.5 1021613
20:00−15юв5119599 0.1 1019354
27 февраля, сб
сб2723:00−14юв6129599 0.3 1018344
02:00−13юв61294100 0.2 1014371
05:00−12ююв81394100 0.6 1011411
08:00−9ююв91594100 2.0 1006527
11:00−5ю81395100 6.3 1004608
14:000ю5899100 1.0 1002301
17:00+1юз49100100 1.8 1002366
20:000юз4895100 0.1 1003321
28 февраля, вс
вс2823:00−1юз489799 0.2 1003326
02:00−1ююз3698100 0.7 1003228
05:00−2юз4997100 1.4 1003266
08:00−3ююз3896100 0.1 1002170
11:00−2юз579696 0.2 1003384
14:00−1юз479798 0.3 1004503
17:000ююз479899 1.1 1004465
20:00−2юз3798100 1.0 1006300
1 марта, пн
пн123:00−4зюз359799 1.5 1008104
02:00−9юз339390 0.1 101038
05:00−13юз229569 0.1 101220
08:00−13ююз129673 0.1 101421
11:00−10ююз119383 0.2 1016134
14:00−8ссз118995 0.1 1017323
17:00−9ссз339297 0.2 1017335
20:00−14сз479489 0.1 1018167